Wind_Speed
18 18 17 15 13 10 8 7 6 6 7 9 9 9 8 7 5 2 3 5 5 5 5 5 5 6 6 5 4 5 6 6 5 5 4 5 5 5 6 8 8 7
20 19 18 17 15 12 10 8 7 6 7 8 8 7 5 4 3 1 3 5 5 5 5 4 4 5 5 6 6 6 6 5 4 4 3 3 3 4 5 6 6 6
21 20 20 19 17 14 11 8 7 6 7 7 6 6 4 2 2 0 3 4 4 4 5 5 5 4 5 6 6 5 5 5 5 5 5 4 4 4 4 4 5 7
21 22 22 21 19 16 11 8 8 7 6 5 4 4 2 1 1 2 3 3 4 5 5 5 5 4 4 5 5 5 5 5 5 6 5 5 4 4 4 4 5 7
23 24 24 23 20 16 11 8 8 7 6 4 4 3 2 2 2 3 3 4 4 5 6 6 5 5 4 5 5 5 6 6 6 6 6 6 6 7 7 7 7 8
27 26 26 24 20 15 10 8 7 7 5 5 4 2 1 2 3 4 4 4 5 6 7 7 7 6 5 5 6 6 7 7 7 7 7 8 8 9 9 9 9 10
31 29 26 22 17 13 10 8 7 6 5 5 5 3 1 3 4 4 4 5 6 7 9 9 8 8 7 7 7 7 7 7 7 8 8 9 9 11 12 12 12 12
33 30 25 19 15 12 9 7 6 5 4 5 5 3 2 4 5 5 5 6 7 9 9 10 10 9 9 9 8 8 8 9 9 9 10 11 11 13 13 14 13 12
32 27 22 17 14 10 7 6 5 4 4 4 4 2 3 4 5 6 6 7 9 9 10 10 10 10 9 9 9 9 9 9 10 11 11 11 11 12 11 11 11 10
27 24 22 17 12 8 6 6 6 5 4 3 3 3 5 5 6 7 8 9 10 10 10 10 10 9 9 9 10 10 9 9 9 10 9 9 9 8 7 7 6 6
25 22 19 15 10 8 7 6 6 5 3 3 4 5 7 7 7 8 9 9 10 10 10 10 9 9 8 8 9 9 9 8 8 8 7 6 6 5 4 3 2 2
23 18 14 13 11 9 8 7 7 5 5 4 5 7 8 8 8 10 10 11 11 11 11 10 10 9 9 9 9 9 9 8 7 7 6 5 4 4 4 4 3 4
18 14 12 12 12 10 9 10 8 6 5 5 6 7 9 9 9 10 11 12 12 12 12 11 11 11 11 10 10 10 10 9 8 7 7 6 6 6 7 8 8 8
14 14 12 14 14 13 12 11 9 6 5 5 5 6 8 9 9 10 10 11 11 12 13 13 13 13 12 12 12 12 12 11 10 10 9 9 10 11 12 13 13 11
10 13 14 16 17 15 13 11 9 8 6 6 6 6 6 7 8 9 10 10 11 11 12 13 14 14 14 14 14 14 14 13 13 13 13 13 14 16 17 16 14 13
8 11 14 16 17 16 14 11 10 9 7 6 5 6 6 6 7 8 9 9 10 11 11 12 14 15 15 16 16 16 16 16 16 16 16 17 19 20 19 17 16 16
9 11 14 15 14 15 16 15 14 12 8 5 4 4 5 5 6 6 7 9 11 12 13 14 14 14 15 16 17 17 17 18 18 18 19 21 22 22 20 19 19 19
8 8 10 13 13 14 16 16 14 11 7 5 4 3 3 4 5 6 6 8 10 13 15 16 16 15 15 16 17 18 18 19 20 21 21 23 24 23 21 21 21 21
9 6 6 7 8 8 8 7 6 6 6 5 5 4 5 5 6 7 8 9 10 12 15 17 18 17 15 15 16 17 18 20 21 22 23 24 25 24 23 22 22 22
11 9 8 7 7 6 6 6 6 7 8 7 6 7 7 8 9 9 10 11 11 12 14 16 18 18 16 16 17 18 18 20 22 23 25 26 26 26 25 24 24 24
14 14 14 12 12 11 11 12 11 10 10 9 9 9 9 11 12 12 13 13 13 14 15 16 17 17 16 17 18 19 20 21 23 25 27 28 28 28 28 28 28 28
14 14 13 13 13 13 13 13 12 11 11 10 10 11 12 13 13 14 15 15 15 16 17 17 17 17 16 16 16 18 20 21 23 25 27 29 29 29 30 30 30 29
14 14 14 13 13 14 13 13 12 12 12 11 11 13 14 14 15 16 17 17 17 17 19 20 21 20 20 20 19 20 21 22 23 24 26 29 30 31 32 32 31 30
15 16 16 15 16 16 16 16 15 16 16 16 15 16 17 19 20 20 21 21 22 22 23 25 25 25 24 23 23 24 24 25 25 26 27 28 30 32 33 33 32 31
18 18 19 19 19 20 20 20 20 19 19 20 21 21 22 23 25 25 25 25 26 26 27 28 28 27 27 27 26 26 27 27 27 28 29 29 30 33 35 34 33 33
22 23 24 23 23 23 24 25 25 25 25 25 25 27 28 29 30 31 31 30 30 30 31 31 31 31 31 30 29 27 27 28 28 29 30 32 34 36 36 35 35 35
Wind_Direction
223 220 225 235 241 250 262 275 305 330 339 341 344 343 351 9 17 44 163 180 186 184 191 202 204 205 207 198 191 201 202 194 189 190 194 203 216 210 185 183 186 188
223 224 227 235 241 250 260 273 296 318 332 336 337 340 350 15 28 80 179 178 173 175 180 189 195 197 194 187 189 195 191 189 191 185 182 185 191 185 172 164 157 152
222 226 231 236 240 248 256 269 290 311 328 332 328 331 339 359 18 184 186 168 161 165 167 177 188 189 191 194 198 196 186 189 192 189 190 185 175 172 169 152 140 140
225 231 236 237 240 247 254 267 288 307 322 320 312 319 320 291 263 226 197 170 155 154 158 167 173 174 184 195 199 197 194 191 190 190 190 184 174 164 159 154 150 153
227 233 237 238 240 246 252 261 281 298 306 301 295 300 286 241 233 229 210 181 154 146 149 150 154 162 170 182 190 190 189 186 186 187 179 174 172 167 166 170 172 169
227 231 234 236 237 240 246 254 271 288 292 286 286 290 255 226 229 228 213 186 159 145 139 137 143 148 148 159 169 171 174 175 175 176 171 169 169 165 163 164 165 163
225 229 230 230 232 233 239 251 270 282 280 274 275 277 236 216 229 233 215 186 161 146 137 134 134 132 133 140 145 146 148 147 150 151 149 150 152 148 144 141 141 144
219 224 227 223 223 230 241 259 277 278 268 268 268 262 219 210 229 234 210 177 158 146 138 132 128 127 131 132 130 130 129 131 131 130 130 133 135 134 134 134 134 134
214 213 217 215 216 227 247 265 269 259 255 259 260 238 183 191 216 221 197 170 156 148 139 133 130 132 134 132 131 127 126 127 125 124 129 131 131 132 133 134 134 134
216 204 200 201 211 231 251 255 242 234 239 230 207 180 167 174 194 200 188 170 159 153 146 141 141 141 139 138 137 133 135 136 131 132 134 129 127 131 132 134 136 137
217 204 194 193 206 228 235 230 220 206 188 164 156 163 165 168 181 190 186 177 169 164 159 156 155 153 151 151 148 145 151 153 146 146 143 133 132 135 137 145 154 159
215 204 198 201 208 221 217 201 195 180 156 152 159 165 170 174 182 188 189 187 183 178 176 173 170 169 171 171 169 167 173 177 172 172 174 168 168 179 198 212 225 237
223 204 202 210 206 206 197 185 186 181 168 173 176 176 179 182 188 193 194 194 192 189 189 189 186 187 190 192 192 191 194 200 201 205 213 215 218 227 234 239 240 243
220 195 195 204 197 195 194 188 188 185 176 183 191 190 189 190 196 202 202 201 201 199 199 200 200 201 204 206 208 209 209 214 219 225 233 240 245 248 248 249 251 253
202 177 178 189 191 196 197 187 182 184 185 189 193 193 193 195 200 206 210 212 214 212 211 210 211 212 214 216 219 220 221 223 227 232 239 245 249 252 254 258 265 273
193 173 177 186 195 203 203 192 183 186 191 193 186 182 189 200 207 208 213 220 224 228 228 225 222 220 221 224 225 226 229 231 233 237 242 246 250 255 259 265 274 278
193 189 188 188 196 204 203 200 193 182 179 192 193 184 190 204 215 217 221 229 234 237 239 237 233 229 229 232 235 237 240 242 244 244 244 248 253 258 261 267 272 273
184 188 184 179 189 197 194 193 187 170 167 193 206 213 216 217 227 236 242 246 246 245 246 246 244 238 234 237 241 245 248 252 254 254 253 256 260 264 266 269 271 272
180 174 167 168 187 200 197 197 186 165 178 201 212 232 248 250 252 254 257 260 259 255 254 253 253 250 247 246 249 252 255 258 260 261 263 265 268 270 271 271 272 272
219 219 221 217 213 216 223 228 216 198 201 212 223 238 251 258 259 259 261 262 263 263 260 256 256 257 257 256 258 259 261 263 264 265 267 270 272 274 273 272 271 270
244 245 246 245 240 237 236 234 230 222 218 220 230 243 254 257 259 264 268 269 269 270 270 266 263 262 260 258 259 261 262 263 265 268 270 272 274 274 274 273 273 272
238 242 245 245 244 246 248 248 247 246 243 241 243 249 255 255 255 260 266 268 268 270 273 274 272 269 267 265 265 267 267 267 268 270 272 274 275 274 274 274 273 273
230 233 237 239 240 243 247 250 254 256 257 257 253 252 253 251 250 252 257 259 261 263 266 269 270 272 275 278 279 277 276 274 273 271 271 272 274 275 275 275 274 275
240 242 246 250 253 255 255 257 259 261 263 263 262 258 254 252 254 257 259 260 263 264 263 264 267 271 275 278 278 276 275 274 273 272 270 270 271 273 274 275 277 278
253 255 256 257 260 263 265 265 265 265 267 270 271 271 269 267 269 270 269 268 270 269 268 269 272 274 275 275 274 272 272 271 270 269 268 267 268 270 271 273 275 275
261 262 261 260 260 261 263 265 265 264 265 265 268 271 273 274 275 275 274 273 272 271 270 271 273 274 275 274 273 272 271 270 268 267 267 267 267 267 270 271 269 268
Height
3138 3138 3139 3139 3139 3139 3139 3140 3140 3140 3140 3140 3140 3140 3139 3139 3139 3140 3140 3141 3142 3142 3143 3143 3144 3145 3146 3147 3148 3148 3148 3149 3149 3150 3150 3150 3151 3151 3153 3154 3154 3155
3137 3137 3137 3137 3137 3138 3138 3139 3139 3140 3139 3139 3139 3139 3139 3139 3139 3140 3140 3141 3141 3142 3143 3143 3144 3145 3146 3147 3147 3148 3148 3149 3149 3150 3150 3150 3151 3151 3152 3153 3154 3155
3135 3135 3136 3136 3136 3137 3137 3138 3138 3138 3138 3138 3138 3138 3138 3138 3139 3140 3140 3141 3141 3142 3143 3143 3144 3145 3145 3146 3147 3148 3149 3149 3150 3150 3150 3150 3151 3151 3152 3153 3154 3155
3134 3135 3135 3135 3135 3135 3136 3137 3137 3138 3137 3137 3137 3137 3137 3138 3139 3139 3140 3140 3141 3141 3142 3143 3144 3145 3145 3146 3147 3148 3149 3149 3150 3150 3150 3151 3152 3152 3153 3153 3154 3156
3133 3133 3134 3134 3134 3135 3135 3136 3137 3137 3137 3136 3136 3136 3137 3137 3138 3139 3139 3140 3140 3141 3142 3143 3144 3145 3146 3147 3148 3149 3149 3150 3150 3151 3151 3152 3153 3153 3154 3154 3155 3156
3130 3131 3132 3133 3134 3134 3135 3136 3136 3136 3136 3136 3136 3136 3136 3137 3138 3138 3139 3139 3140 3141 3142 3143 3144 3145 3146 3147 3148 3149 3150 3150 3151 3151 3152 3153 3153 3154 3155 3155 3156 3157
3128 3130 3131 3132 3133 3134 3135 3135 3135 3135 3135 3135 3135 3136 3136 3137 3137 3138 3138 3139 3140 3141 3142 3143 3144 3145 3146 3147 3149 3149 3150 3151 3151 3152 3152 3153 3154 3155 3156 3156 3157 3157
3125 3128 3130 3132 3133 3134 3135 3135 3135 3134 3134 3134 3135 3135 3136 3136 3137 3138 3138 3139 3140 3141 3142 3143 3144 3145 3146 3147 3149 3150 3151 3151 3152 3152 3153 3154 3154 3155 3156 3157 3157 3158
3123 3126 3129 3131 3132 3133 3134 3134 3133 3133 3133 3133 3134 3134 3135 3136 3137 3137 3138 3139 3140 3141 3142 3143 3144 3145 3146 3147 3149 3150 3151 3151 3152 3153 3153 3154 3155 3156 3156 3157 3157 3158
3122 3124 3127 3129 3131 3132 3132 3132 3132 3132 3132 3133 3133 3134 3135 3136 3137 3137 3138 3139 3140 3141 3142 3143 3144 3145 3146 3148 3149 3150 3151 3152 3152 3153 3154 3154 3155 3156 3156 3157 3157 3158
3121 3124 3126 3128 3129 3130 3130 3131 3131 3131 3132 3132 3132 3133 3134 3135 3136 3137 3138 3139 3139 3140 3142 3143 3144 3145 3147 3148 3149 3150 3151 3152 3152 3153 3154 3154 3155 3156 3156 3157 3157 3158
3119 3123 3126 3127 3127 3129 3129 3130 3130 3130 3131 3131 3132 3133 3134 3135 3136 3137 3138 3139 3139 3140 3141 3142 3144 3145 3147 3148 3149 3150 3151 3151 3152 3153 3153 3154 3154 3155 3155 3156 3157 3157
3119 3122 3124 3126 3127 3128 3129 3129 3129 3130 3130 3131 3131 3132 3134 3135 3136 3137 3137 3138 3139 3140 3141 3142 3143 3145 3146 3148 3149 3150 3150 3151 3151 3152 3152 3153 3153 3154 3154 3154 3155 3155
3120 3120 3121 3124 3126 3127 3128 3129 3129 3130 3130 3130 3131 3132 3133 3134 3135 3136 3137 3138 3138 3139 3140 3141 3143 3144 3146 3147 3148 3149 3150 3150 3151 3151 3151 3151 3151 3151 3151 3151 3152 3153
3119 3119 3120 3123 3125 3126 3127 3128 3129 3129 3129 3130 3131 3132 3132 3133 3134 3135 3136 3137 3138 3139 3140 3141 3142 3143 3145 3146 3147 3148 3149 3149 3150 3150 3149 3149 3149 3148 3148 3149 3150 3152
3117 3118 3119 3122 3123 3125 3127 3128 3128 3128 3128 3129 3130 3131 3131 3132 3133 3133 3134 3135 3136 3137 3138 3139 3141 3142 3143 3145 3146 3146 3147 3148 3148 3148 3147 3147 3145 3145 3146 3147 3149 3149
3116 3116 3117 3120 3122 3124 3126 3126 3126 3126 3127 3128 3129 3129 3130 3130 3131 3132 3133 3133 3134 3135 3136 3137 3139 3140 3142 3142 3143 3144 3145 3145 3145 3145 3145 3143 3142 3143 3144 3145 3145 3145
3115 3116 3117 3119 3121 3123 3124 3124 3123 3123 3124 3126 3127 3127 3128 3128 3129 3130 3131 3132 3133 3133 3134 3135 3136 3138 3139 3140 3140 3141 3141 3142 3142 3142 3141 3140 3139 3140 3141 3141 3141 3141
3112 3113 3115 3116 3118 3119 3120 3121 3120 3120 3122 3124 3125 3125 3126 3126 3127 3128 3129 3130 3131 3131 3132 3132 3133 3135 3136 3137 3137 3137 3138 3138 3138 3138 3137 3136 3135 3136 3137 3137 3137 3137
3111 3112 3113 3114 3114 3116 3117 3117 3118 3119 3121 3122 3123 3123 3124 3125 3125 3126 3126 3127 3128 3129 3129 3130 3130 3132 3133 3133 3133 3133 3134 3134 3133 3133 3132 3131 3131 3132 3132 3133 3133 3134
3111 3112 3112 3112 3112 3113 3114 3115 3116 3117 3118 3119 3120 3121 3122 3123 3123 3124 3124 3124 3125 3125 3126 3127 3128 3129 3129 3130 3130 3130 3130 3130 3129 3129 3128 3127 3127 3126 3127 3127 3128 3129
3110 3110 3111 3111 3111 3111 3112 3112 3113 3114 3115 3116 3118 3118 3119 3120 3121 3122 3122 3122 3122 3122 3123 3123 3124 3125 3126 3126 3127 3127 3126 3126 3126 3125 3123 3122 3122 3121 3122 3122 3123 3124
3108 3108 3108 3108 3109 3109 3109 3110 3111 3111 3112 3113 3114 3115 3117 3118 3119 3120 3120 3120 3120 3120 3120 3120 3121 3121 3122 3123 3123 3123 3123 3122 3122 3121 3120 3119 3117 3117 3116 3117 3118 3119
3106 3106 3107 3107 3107 3108 3108 3108 3108 3108 3108 3109 3110 3111 3113 3115 3116 3116 3117 3117 3117 3117 3118 3117 3118 3118 3119 3119 3119 3119 3119 3118 3118 3117 3116 3115 3114 3113 3112 3112 3113 3114
3104 3105 3105 3106 3106 3106 3106 3106 3106 3106 3105 3105 3105 3106 3107 3108 3109 3110 3111 3112 3112 3113 3113 3112 3112 3113 3113 3113 3113 3113 3114 3114 3113 3113 3112 3112 3111 3109 3108 3109 3109 3109
3101 3102 3102 3103 3103 3103 3103 3103 3103 3103 3103 3103 3102 3102 3102 3103 3104 3104 3105 3106 3106 3107 3107 3106 3107 3107 3107 3107 3107 3108 3108 3108 3108 3108 3108 3107 3106 3105 3105 3105 3105 3105